Estación meteorológica de Els Cortals - St. Hilari Sacalm (La Selva, Guilleries)

Consulta los datos en tiempo real de la estación meteorológica de Els Cortals - St. Hilari Sacalm





Hora UTC 05:45
Temperatura 24.1 ºC
Humedad 53.0 %
Presión 1013.2 hPa
Pluja 0.0 mm
Velocidad viento 0.0 km/h
Dirección viento W

Datos diarios 2026-09-06



Hora UTC (invierno +1h; verano +2h)
Temperatura (ºC) Humedad (%) Presión (hPa) Velocidad viento (km/h) Precipitación (mm)
Hora UTC Aire Humedad Presión Vel. Dir. Vel. Max Dir. Intent. máx 5 min.
00:05 24.7 58.0 1013.9 0.0 W 0.0 0.0
00:10 24.8 58.0 1013.8 0.0 W 0.0 0.0
00:15 24.9 58.0 1013.7 0.0 WSW 0.0 0.0
00:20 24.9 58.0 1013.8 0.0 WNW 0.0 0.0
00:25 24.9 58.0 1013.7 0.0 WSW 0.0 0.0
00:30 24.9 58.0 1013.7 0.0 W 0.0 0.0
00:35 24.8 58.0 1013.7 0.0 W 0.0 0.0
00:40 24.8 58.0 1013.7 0.0 WSW 0.0 0.0
00:45 24.7 58.0 1013.7 0.0 W 0.0 0.0
00:50 24.8 58.0 1013.6 0.0 W 0.0 0.0
00:55 24.9 57.0 1013.7 0.0 W 0.0 0.0
01:00 24.9 57.0 1013.7 0.0 W 0.0 0.0
01:05 24.9 57.0 1013.7 0.0 W 0.0 0.0
01:10 24.9 57.0 1013.7 0.0 W 0.0 0.0
01:15 24.9 57.0 1013.8 0.0 W 0.0 0.0
01:20 24.8 57.0 1013.7 0.0 W 0.0 0.0
01:25 24.9 57.0 1013.6 0.0 W 0.0 0.0
01:30 24.8 57.0 1013.7 0.0 W 0.0 0.0
01:35 24.9 55.0 1013.7 0.0 W 0.0 0.0
01:40 25.0 54.0 1013.7 0.0 W 0.0 0.0
01:45 25.1 52.0 1013.7 0.0 W 0.0 0.0
01:50 25.1 52.0 1013.7 0.0 WSW 0.0 0.0
01:55 25.1 50.0 1013.7 0.0 W 0.0 0.0
02:00 25.2 50.0 1013.6 0.0 W 0.0 0.0
02:05 25.3 50.0 1013.6 0.0 W 0.0 0.0
02:10 25.3 50.0 1013.6 0.0 NW 0.0 0.0
02:15 25.4 51.0 1013.6 0.0 WSW 0.0 0.0
02:20 25.6 50.0 1013.5 0.0 W 0.0 0.0
02:25 25.7 50.0 1013.4 0.0 W 0.0 0.0
02:30 25.8 50.0 1013.5 0.0 WSW 0.0 0.0
02:35 25.8 50.0 1013.4 0.0 W 0.0 0.0
02:40 25.8 50.0 1013.4 0.0 WSW 0.0 0.0
02:45 25.7 50.0 1013.4 0.0 W 1.6 0.0
02:50 25.7 50.0 1013.5 0.0 WSW 8.0 0.0
02:55 25.7 49.0 1013.3 0.0 WSW 8.0 0.0
03:00 25.8 48.0 1013.4 0.0 WSW 0.0 0.0
03:05 25.9 48.0 1013.5 0.0 WSW 0.0 0.0
03:10 25.9 48.0 1013.4 0.0 WSW 0.0 0.0
03:15 25.9 48.0 1013.4 0.0 WSW 0.0 0.0
03:20 25.9 49.0 1013.3 0.0 W 0.0 0.0
03:25 25.9 48.0 1013.3 0.0 WSW 0.0 0.0
03:30 25.9 47.0 1013.3 0.0 W 0.0 0.0
03:35 26.1 46.0 1013.3 0.0 W 0.0 0.0
03:40 26.3 44.0 1013.1 0.0 WSW 0.0 0.0
03:45 26.5 42.0 1013.0 0.0 WSW 0.0 0.0
03:50 26.6 42.0 1013.0 0.0 W 0.0 0.0
03:55 26.7 41.0 1013.1 0.0 W 0.0 0.0
04:00 26.7 41.0 1013.0 0.0 W 0.0 0.0
04:05 26.7 41.0 1013.0 0.0 W 0.0 0.0
04:10 26.7 41.0 1012.9 0.0 W 0.0 0.0
04:15 26.7 42.0 1012.9 0.0 W 0.0 0.0
04:20 26.6 43.0 1012.9 0.0 W 0.0 0.0
04:25 26.6 44.0 1012.9 0.0 W 0.0 0.0
04:30 26.4 45.0 1012.8 0.0 WSW 0.0 0.0
04:35 26.3 46.0 1012.9 0.0 W 0.0 0.0
04:40 26.2 46.0 1012.8 0.0 W 0.0 0.0
04:45 26.2 46.0 1012.7 0.0 W 0.0 0.0
04:50 26.2 47.0 1012.7 0.0 WSW 0.0 0.0
04:55 26.1 48.0 1012.7 0.0 WSW 0.0 0.0
05:00 25.9 49.0 1012.7 0.0 WSW 0.0 0.0
05:05 25.8 49.0 1012.7 0.0 WSW 0.0 0.0
05:10 25.6 49.0 1012.8 0.0 WSW 0.0 0.0
05:15 25.4 50.0 1012.8 0.0 W 0.0 0.0
05:20 25.3 50.0 1012.7 0.0 W 0.0 0.0
05:25 25.2 50.0 1012.7 0.0 WSW 0.0 0.0
05:30 25.0 51.0 1012.8 0.0 W 0.0 0.0
05:35 24.7 51.0 1013.0 0.0 W 0.0 0.0
05:40 24.3 52.0 1013.1 0.0 W 0.0 0.0
05:45 24.1 53.0 1013.2 0.0 W 0.0 0.0
Máxima 26.7 58.0 1013.9 0.0 W 8.0 0.0
Mínima 20 41.0 1012.7
Total 0.0